Location: Bauerbach
(50.4985°N, 10.3912°E)
Time: 06:54:23
(UTC+00:00)

CZ-4C R/B - Pass Details

Date: 13 January 2026
Orbit: 482 x 1496 km, 63.4° (Epoch: 17 February)

Event Time Altitude Azimuth Distance (km) Brightness Sun altitude
Exits shadow 03:35:14 23° 14° (NNE) 1,795 4.0 -34.1°
Drops below altitude 10° 03:38:49 10° 43° (NE) 2,775 5.4 -33.5°
Sets 03:42:16 0° 55° (NE) 3,926 6.5 -32.9°
